Change the Weather History Date:

Wednesday, January 8, 2014

  Actual Average Record
Temperature  
Mean Temperature 39 °F -  
Max Temperature 48 °F 35 °F 65 °F (1953)
Min Temperature 30 °F 24 °F -10 °F (1974)
Degree Days  
Heating Degree Days 26    
Moisture  
Dew Point 32 °F    
Average Humidity 94    
Maximum Humidity 100    
Minimum Humidity 64    
Precipitation  
Precipitation 0.09 in - - ()
Sea Level Pressure  
Sea Level Pressure 29.97 in    
Wind  
Wind Speed 4 mph (SW)    
Max Wind Speed 18 mph    
Max Gust Speed -    
Visibility 2 miles    
Events Fog , Rain    
Averages and records for this station are not official NWS values.
T = Trace of Precipitation, MM = Missing Value Source: NWS Daily Summary

Daily Weather History Graph

Daily Weather History Graph

Search for Another Location

Airport or City:

Trip Planner

Search our weather history database for the weather conditions in past years. The results will help you decide how hot, cold, wet, or windy it might be!

Date:

Astronomy

Jan. 08, 2014 Rise Set
Actual Time 7:34 AM PST 4:25 PM PST
Civil Twilight 7:00 AM PST 4:59 PM PST
Nautical Twilight 6:22 AM PST 5:37 PM PST
Astronomical Twilight 5:46 AM PST 6:13 PM PST
Moon 11:31 AM PST (1/8) 12:33 AM PST (1/8)
Length of Visible Light 9h 59m
Length of Day
8h 51m
First Quarter, 57% of the Moon is Illuminated
Jan 8
First Quarter
Jan 15
Full
Jan 23
Last Quarter
Jan 30
New
Feb 6
First Quarter

Hourly Weather History & Observations

Time (PST) Temp. Windchill Dew Point Humidity Pressure Visibility Wind Dir Wind Speed Gust Speed Precip Events Conditions
12:01 AM 32.0 °F 26.4 °F 30.9 °F 96% 30.08 in 1.2 mi South 5.8 mph - N/A   Overcast
12:16 AM 32.0 °F 26.4 °F 30.9 °F 96% 30.09 in 0.5 mi SSW 5.8 mph - N/A Fog Fog
12:25 AM 32.0 °F 26.4 °F 30.9 °F 96% 30.09 in 0.2 mi South 5.8 mph - N/A Fog Fog
12:36 AM 32.0 °F 27.5 °F 30.9 °F 96% 30.08 in 0.2 mi South 4.6 mph - N/A Fog Fog
12:53 AM 30.9 °F 26.2 °F 30.9 °F 100% 30.12 in 0.2 mi South 4.6 mph - N/A Fog Light Freezing Fog
1:23 AM 30.9 °F 26.2 °F 30.0 °F 96% 30.08 in 0.2 mi SSW 4.6 mph - N/A Fog Light Freezing Fog
1:31 AM 30.9 °F 26.2 °F 30.0 °F 96% 30.09 in 0.5 mi South 4.6 mph - N/A Fog Light Freezing Fog
1:53 AM 30.9 °F 27.5 °F 30.0 °F 96% 30.13 in 0.5 mi SSW 3.5 mph - N/A Fog Light Freezing Fog
2:18 AM 30.9 °F 27.5 °F 30.0 °F 96% 30.10 in 0.8 mi WSW 3.5 mph - N/A   Overcast
2:33 AM 30.9 °F - 30.0 °F 96% 30.10 in 0.2 mi Calm Calm - N/A Fog Light Freezing Fog
2:53 AM 30.9 °F - 30.0 °F 96% 30.13 in 0.5 mi Calm Calm - N/A Fog Light Freezing Fog
3:24 AM 30.9 °F - 30.9 °F 100% 30.09 in 1.0 mi Calm Calm - N/A   Overcast
3:34 AM 32.0 °F - 30.0 °F 92% 30.09 in 0.8 mi Calm Calm - N/A   Overcast
3:43 AM 32.0 °F - 30.0 °F 92% 30.08 in 1.5 mi Calm Calm - N/A   Overcast
3:53 AM 32.0 °F - 30.0 °F 92% 30.11 in 1.5 mi Calm Calm - N/A   Overcast
4:00 AM 32.0 °F - 30.0 °F 92% 30.07 in 2.0 mi Calm Calm - N/A   Overcast
4:27 AM 32.0 °F 26.4 °F 30.0 °F 92% 30.09 in 1.8 mi NW 5.8 mph - N/A   Overcast
4:39 AM 32.0 °F 27.5 °F 30.9 °F 96% 30.08 in 0.2 mi NNW 4.6 mph - N/A Fog Fog
4:51 AM 32.0 °F - 30.2 °F 93% 30.07 in 0.2 mi Calm Calm - N/A Fog Fog
4:52 AM 32.0 °F - 30.9 °F 96% 30.11 in 0.2 mi Calm Calm - N/A Fog Fog
5:01 AM 32.0 °F - 30.9 °F 96% 30.07 in 0.2 mi Calm Calm - N/A Fog Fog
5:17 AM 32.0 °F - 30.9 °F 96% 30.07 in 1.0 mi Calm Calm - N/A   Overcast
5:35 AM 32.0 °F - 30.0 °F 92% 30.06 in 1.2 mi Calm Calm - N/A   Overcast
5:43 AM 32.0 °F - 30.9 °F 96% 30.06 in 1.2 mi Calm Calm - N/A   Overcast
5:53 AM 32.0 °F - 30.9 °F 96% 30.09 in 1.5 mi Calm Calm - N/A   Overcast
6:11 AM 32.0 °F 28.7 °F 30.9 °F 96% 30.06 in 0.8 mi West 3.5 mph - N/A   Overcast
6:21 AM 32.0 °F 28.7 °F 30.9 °F 96% 30.05 in 0.5 mi NW 3.5 mph - N/A Fog Fog
6:30 AM 32.0 °F 26.4 °F 30.0 °F 92% 30.06 in 0.5 mi WNW 5.8 mph - N/A Fog Fog
6:33 AM 32.0 °F 27.5 °F 30.9 °F 96% 30.06 in 0.2 mi WNW 4.6 mph - N/A Fog Fog
6:53 AM 32.0 °F 28.7 °F 30.9 °F 96% 30.09 in 0.5 mi NNE 3.5 mph - N/A Fog Fog
7:22 AM 32.0 °F 28.7 °F 30.0 °F 92% 30.04 in 0.5 mi East 3.5 mph - N/A Fog Fog
7:36 AM 32.0 °F - 30.9 °F 96% 30.04 in 0.2 mi Calm Calm - N/A Fog Fog
7:53 AM 32.0 °F 28.7 °F 30.9 °F 96% 30.08 in 0.2 mi WNW 3.5 mph - N/A Fog Fog
7:56 AM 32.0 °F 27.5 °F 30.9 °F 96% 30.04 in 0.2 mi West 4.6 mph - N/A Fog Fog
8:05 AM 32.0 °F 28.7 °F 30.9 °F 96% 30.04 in 0.2 mi West 3.5 mph - N/A Fog Fog
8:20 AM 32.0 °F - 32.0 °F 100% 30.04 in 0.2 mi Calm Calm - N/A Fog Fog
8:26 AM 32.0 °F - 30.9 °F 96% 30.04 in 0.5 mi Calm Calm - N/A Fog Fog
8:53 AM 32.0 °F 28.7 °F 30.9 °F 96% 30.08 in 0.5 mi North 3.5 mph - N/A Fog Fog
8:58 AM 32.0 °F 27.5 °F 30.9 °F 96% 30.04 in 0.2 mi North 4.6 mph - N/A Fog Fog
9:09 AM 32.0 °F - 30.9 °F 96% 30.03 in 0.8 mi Calm Calm - N/A   Overcast
9:19 AM 32.0 °F - 30.9 °F 96% 30.03 in 1.0 mi Calm Calm - N/A   Overcast
9:30 AM 33.1 °F 30.0 °F 30.9 °F 92% 30.03 in 0.8 mi NNE 3.5 mph - N/A   Overcast
9:38 AM 33.1 °F 30.0 °F 30.9 °F 92% 30.03 in 1.2 mi NE 3.5 mph - N/A   Overcast
9:53 AM 33.1 °F 30.0 °F 30.9 °F 92% 30.06 in 1.5 mi ENE 3.5 mph - N/A   Overcast
10:24 AM 34.0 °F - 32.0 °F 92% 30.01 in 3.0 mi Calm Calm - 0.00 in   Overcast
10:49 AM 33.8 °F 30.8 °F 32.0 °F 93% 30.01 in 0.8 mi West 3.5 mph - 0.00 in   Overcast
10:53 AM 33.1 °F 27.7 °F 32.0 °F 96% 30.04 in 0.8 mi West 5.8 mph - 0.00 in   Overcast
11:01 AM 33.1 °F - 32.0 °F 96% 30.00 in 0.8 mi Calm Calm - N/A   Overcast
11:08 AM 33.1 °F - 32.0 °F 96% 30.00 in 1.0 mi Calm Calm - N/A   Overcast
11:17 AM 33.1 °F - 32.0 °F 96% 30.00 in 0.8 mi Calm Calm - N/A   Overcast
11:24 AM 33.1 °F - 32.0 °F 96% 29.99 in 1.0 mi Calm Calm - N/A   Overcast
11:53 AM 34.0 °F 29.8 °F 32.0 °F 92% 30.01 in 1.2 mi West 4.6 mph - N/A   Overcast
12:53 PM 34.0 °F - 33.1 °F 96% 29.97 in 1.0 mi Calm Calm - N/A   Overcast
1:04 PM 34.0 °F - 33.1 °F 96% 29.92 in 0.8 mi Calm Calm - N/A   Overcast
1:23 PM 33.1 °F 27.7 °F 32.0 °F 96% 29.93 in 0.5 mi West 5.8 mph - N/A Fog Fog
1:34 PM 33.1 °F - 33.1 °F 100% 29.92 in 0.2 mi Calm Calm - N/A Fog Fog
1:53 PM 33.1 °F - 32.0 °F 96% 29.95 in 0.2 mi Calm Calm - N/A Fog Fog
2:00 PM 34.0 °F 31.0 °F 33.1 °F 96% 29.91 in 0.5 mi West 3.5 mph - 0.00 in Fog , Rain Light Rain
2:12 PM 34.0 °F - 33.1 °F 96% 29.91 in 0.5 mi Calm Calm - 0.00 in Fog , Rain Light Rain
2:35 PM 34.0 °F 31.0 °F 33.1 °F 96% 29.90 in 0.5 mi Variable 3.5 mph - 0.00 in Fog Fog
2:53 PM 34.0 °F - 33.1 °F 96% 29.92 in 0.5 mi Calm Calm - 0.00 in Fog , Rain Light Rain
3:18 PM 35.1 °F 32.2 °F 34.0 °F 96% 29.87 in 0.8 mi NE 3.5 mph - 0.00 in Rain Light Rain
3:28 PM 35.1 °F 32.2 °F 34.0 °F 96% 29.86 in 1.0 mi NNE 3.5 mph - 0.00 in   Overcast
3:53 PM 37.0 °F - 36.0 °F 96% 29.88 in 5.0 mi Calm Calm - 0.00 in   Overcast
4:53 PM 35.1 °F 31.0 °F 33.1 °F 92% 29.86 in 5.0 mi South 4.6 mph - N/A   Overcast
5:00 PM 36.0 °F 32.1 °F 34.0 °F 93% 29.81 in 2.0 mi SSE 4.6 mph - N/A   Overcast
5:15 PM 39.9 °F 33.9 °F 35.1 °F 83% 29.80 in 5.0 mi SE 9.2 mph - 0.00 in Rain Light Rain
5:53 PM 48.9 °F - 37.0 °F 64% 29.80 in 10.0 mi SSE 18.4 mph - 0.00 in Rain Light Rain
6:53 PM 41.0 °F 33.5 °F 35.1 °F 79% 29.81 in 9.0 mi WSW 13.8 mph - 0.01 in Rain Light Rain
7:03 PM 34.0 °F 26.0 °F 32.0 °F 92% 29.79 in 1.8 mi West 10.4 mph - 0.00 in Rain Light Rain
7:09 PM 34.0 °F 26.6 °F 32.0 °F 92% 29.79 in 0.8 mi WSW 9.2 mph - 0.00 in Rain Light Rain
7:30 PM 35.1 °F 32.2 °F 33.1 °F 92% 29.78 in 1.8 mi ESE 3.5 mph - 0.01 in Rain Light Rain
7:37 PM 36.0 °F 32.1 °F 34.0 °F 93% 29.78 in 2.5 mi SE 4.6 mph - 0.01 in Rain Light Rain
7:44 PM 37.0 °F 34.5 °F 35.1 °F 93% 29.78 in 3.0 mi South 3.5 mph - 0.01 in Rain Light Rain
7:53 PM 37.0 °F 33.3 °F 35.1 °F 93% 29.81 in 4.0 mi SSW 4.6 mph - 0.02 in Rain Light Rain
8:08 PM 35.1 °F 28.6 °F 33.1 °F 92% 29.80 in 1.8 mi West 8.1 mph - 0.02 in Rain Light Rain
8:18 PM 34.0 °F 28.0 °F 33.1 °F 96% 29.80 in 1.0 mi WSW 6.9 mph - 0.03 in Rain Light Rain
8:23 PM 33.1 °F 26.9 °F 32.0 °F 96% 29.80 in 0.5 mi WSW 6.9 mph - 0.03 in Fog , Rain Light Rain
8:27 PM 33.1 °F 26.1 °F 32.0 °F 96% 29.81 in 0.2 mi WSW 8.1 mph - 0.03 in Fog , Rain Light Rain
8:49 PM 33.8 °F 23.9 °F 33.8 °F 100% 29.81 in 0.8 mi SSE 15.0 mph - 0.04 in Rain Light Rain
8:51 PM 33.8 °F 23.9 °F 33.8 °F 100% 29.81 in 1.0 mi SE 15.0 mph - 0.04 in Rain Light Rain
8:53 PM 34.0 °F 24.6 °F 33.1 °F 96% 29.84 in 1.2 mi SE 13.8 mph - 0.04 in Rain Light Rain
9:02 PM 35.1 °F 25.5 °F 33.1 °F 92% 29.79 in 2.0 mi SE 15.0 mph - 0.01 in Rain Rain
9:12 PM 39.9 °F 31.1 °F 37.0 °F 89% 29.79 in 8.0 mi South 17.3 mph - 0.01 in Rain Light Rain
9:53 PM 43.0 °F 35.4 °F 39.0 °F 86% 29.83 in 10.0 mi SSW 16.1 mph - 0.01 in   Scattered Clouds
10:53 PM 43.0 °F 36.8 °F 37.9 °F 82% 29.82 in 10.0 mi South 11.5 mph - N/A   Overcast
11:53 PM 44.1 °F 37.7 °F 37.0 °F 76% 29.81 in 9.0 mi SW 12.7 mph - 0.01 in Rain Light Rain